Date,TemperatureHighF,TemperatureAvgF,TemperatureLowF,DewpointHighF,DewpointAvgF,DewpointLowF,HumidityHigh,HumidityAvg,HumidityLow,PressureMaxIn,PressureMinIn,WindSpeedMaxMPH,WindSpeedAvgMPH,GustSpeedMaxMPH,PrecipitationSumIn
2013-10-1,71.1,60.8,55.0,62.1,58.3,53.6,95,92,74,30.02,29.97,8,1,9,0.00
2013-10-2,75.0,66.6,50.9,62.6,58.9,49.1,95,77,63,30.09,29.91,10,5,15,0.00
2013-10-3,76.8,60.4,43.7,57.5,47.3,37.9,95,68,25,30.12,29.99,7,2,9,0.00
2013-10-4,73.0,66.9,60.3,68.3,64.6,58.9,95,93,84,30.04,29.98,8,3,10,0.09
2013-10-5,68.2,62.6,59.2,65.2,60.9,57.8,95,94,89,30.07,29.98,8,3,10,0.63
2013-10-6,85.5,71.1,59.2,72.8,64.5,57.8,95,81,54,29.98,29.68,13,3,18,0.70
2013-10-7,75.9,58.5,45.9,63.2,52.6,42.6,95,82,62,30.06,29.64,19,7,23,1.00
2013-10-8,72.7,52.9,38.8,51.2,42.9,37.5,95,74,33,30.32,30.06,6,1,8,0.00
2013-10-9,76.5,55.9,41.4,47.3,42.5,38.6,95,67,28,30.38,30.25,6,2,7,0.00
2013-10-10,76.0,58.8,45.7,45.6,38.7,27.9,84,53,19,30.25,30.06,6,2,8,0.00
2013-10-11,75.0,55.7,41.9,51.9,42.7,34.5,95,68,25,30.16,30.08,9,2,10,0.00
2013-10-12,82.4,60.0,39.0,53.9,41.0,33.0,95,58,19,30.18,30.07,8,2,11,0.00
2013-10-13,71.6,62.3,48.7,60.1,52.5,38.7,95,71,53,30.25,30.13,7,2,10,0.28
2013-10-14,71.8,56.4,42.6,59.6,48.7,41.1,95,79,41,30.34,30.24,8,2,9,0.13
2013-10-15,72.7,55.4,40.6,58.1,49.1,39.3,95,81,54,30.28,29.92,9,3,11,0.00
2013-10-16,71.4,62.9,54.3,59.6,54.9,46.7,94,76,61,29.92,29.74,12,5,16,0.61
2013-10-17,65.1,55.2,50.7,51.7,48.5,45.0,95,79,55,29.88,29.69,11,2,15,1.03
2013-10-18,59.7,53.2,48.6,49.5,43.5,38.3,95,71,49,29.90,29.72,15,6,17,0.05
2013-10-19,63.0,52.7,44.1,48.4,42.4,38.6,94,69,45,29.88,29.64,12,4,15,0.26
2013-10-20,53.1,46.5,42.3,45.4,40.7,36.0,91,80,62,29.97,29.78,14,4,17,0.05
2013-10-21,67.3,55.2,40.8,46.9,38.4,32.6,92,57,29,29.96,29.79,14,4,17,0.26
2013-10-22,50.5,44.9,37.8,49.1,34.0,26.3,95,67,52,29.86,29.76,20,6,22,0.52
2013-10-23,49.3,39.9,33.1,40.0,34.4,27.1,95,81,66,29.83,29.71,15,2,16,0.20
2013-10-24,49.5,39.8,29.1,33.2,30.8,25.8,91,71,49,30.02,29.81,16,6,20,0.00
2013-10-25,51.6,41.0,31.5,39.1,34.3,30.0,95,78,58,30.18,30.02,11,3,13,0.01
2013-10-26,44.4,41.3,37.6,37.3,30.7,25.9,91,67,51,30.12,29.79,20,8,23,0.40
2013-10-27,50.4,42.6,36.5,37.7,33.8,29.8,91,72,53,30.04,29.83,13,4,20,0.11
2013-10-28,50.9,41.9,25.7,37.7,29.3,17.3,89,62,36,30.38,30.03,10,3,13,0.00
2013-10-29,54.7,38.7,24.8,30.2,26.0,21.8,93,65,30,30.64,30.28,6,2,7,0.00
2013-10-30,66.7,47.5,35.8,38.3,34.9,29.9,95,66,31,30.28,30.08,6,1,7,0.00
2013-10-31,68.4,57.6,37.0,60.2,52.2,9.9,95,83,67,30.08,29.35,16,5,21,0.89